Вернуться в каталог

STARLINK-5850

АктивенСвязьVLEO
NORAD 57049·PAYLOAD·🇺🇸 United States

Запущен Jun 22, 2023 с Vandenberg Space Force Base

Loading…

Ближайшие Пролёты (ближайшие 24 часа)

TLE

СвежийSource: CelesTrak SupGP

Эпоха: Sep 14, 2026, 22:15 UTC

1 57049C 23088B   26257.92756944  .00003901  00000+0  14141-3 0  2577
2 57049  43.0023 122.2688 0001867 263.1691 334.3616 15.27550803    11

Отслеживайте STARLINK-5850 в реальном времени с AllMySat

Download on the App Store